Wind_Speed
8 7 6 7 8 9 9 8 9 9 9 11 13 14 15 15 15 15 15 16 16 17 16 15 15 15 16 16 16 15 14 13 12 11 10 10 11 11 12 11 11 11 11 12 12 12 13 14 14 14 14 15 17 20 22 22 22 22 23 23 20 20 20 15 11 12 13 13 14 14 14 14 13 14 15 15 15 15 16 17 18 19 19 20 20 21 21 21
7 6 6 7 8 9 9 8 8 8 7 8 10 12 13 14 14 14 14 15 15 16 17 17 16 16 15 15 15 15 15 14 13 12 12 12 11 12 12 12 12 12 12 12 12 12 13 14 14 14 15 15 16 18 20 21 22 23 24 25 22 21 19 14 13 15 15 14 14 14 13 14 14 15 16 16 15 16 16 16 17 18 19 20 21 21 21 21
7 6 7 8 9 9 9 9 8 8 7 6 7 8 10 12 13 13 14 14 14 14 15 16 17 17 16 15 15 15 14 14 13 14 14 13 12 13 13 13 13 13 13 12 12 12 14 15 15 15 16 16 16 17 18 20 22 23 24 26 24 21 17 14 16 17 17 16 15 14 13 14 14 14 16 16 15 16 17 17 17 18 19 20 21 21 21 21
8 7 8 9 10 10 10 10 8 7 6 6 6 6 7 9 10 12 13 13 13 13 13 14 16 17 17 16 15 14 14 13 14 14 14 14 14 14 14 14 14 13 12 12 12 13 14 14 14 16 16 16 17 17 18 19 20 22 25 25 22 19 16 15 16 17 18 18 16 15 14 14 13 14 15 16 16 17 17 18 18 19 20 21 21 21 20 20
11 9 9 10 10 10 10 10 8 8 6 5 6 7 7 7 7 9 11 12 12 12 12 13 13 14 15 16 15 15 14 13 14 15 15 14 15 15 15 14 14 13 12 12 12 12 12 12 13 15 16 17 18 19 18 18 19 21 23 23 20 18 17 16 17 18 19 19 18 17 16 15 14 14 15 16 17 17 16 16 17 19 20 20 21 22 21 20
12 11 10 10 10 10 10 9 8 8 7 5 6 7 7 7 6 7 8 10 11 11 12 12 12 12 13 14 14 15 14 13 14 15 15 14 15 16 15 15 14 13 12 13 13 12 13 13 12 14 15 17 19 18 16 17 19 19 19 19 19 19 19 18 19 19 19 19 19 18 17 17 16 15 15 16 17 17 16 16 16 17 19 20 20 21 21 21
12 12 12 11 10 9 9 9 8 8 7 6 6 7 7 7 6 6 7 8 10 11 12 12 12 11 11 11 12 13 14 14 15 15 15 15 15 16 15 15 14 13 14 14 14 14 14 13 12 13 14 16 18 17 16 18 19 19 18 16 16 18 19 20 20 20 19 18 18 18 17 16 16 16 16 16 16 16 16 16 16 16 18 20 20 20 20 20
13 13 13 12 11 9 8 8 8 8 7 6 6 7 7 6 7 6 6 7 8 9 11 12 12 12 12 11 11 12 12 14 16 15 14 15 15 15 15 15 14 14 15 15 15 15 14 13 13 13 14 15 16 16 18 19 20 20 19 16 16 16 17 18 20 21 21 20 19 19 18 17 17 17 17 16 16 16 15 16 16 15 17 19 19 19 18 18
14 14 13 12 10 9 7 7 8 8 7 6 6 6 6 6 6 6 6 7 7 8 10 11 11 12 11 11 11 11 11 13 14 14 14 15 14 14 14 14 14 15 16 16 16 15 14 14 14 14 13 14 15 16 18 20 20 21 19 18 18 16 17 18 18 19 21 21 21 20 20 19 19 18 17 17 17 17 17 16 16 15 16 17 18 18 17 17
14 12 11 9 8 7 7 7 8 8 7 6 6 6 6 6 6 6 6 7 8 8 9 10 11 11 10 10 10 10 11 12 12 13 14 15 15 15 14 13 13 14 15 16 16 15 15 15 15 15 14 15 16 16 19 21 20 20 20 21 20 19 19 19 18 19 20 21 20 20 18 19 21 21 20 19 19 18 19 18 18 18 18 18 18 18 17 16
10 9 7 5 5 6 7 7 7 8 8 7 6 6 6 6 6 6 6 7 8 9 9 10 10 9 9 9 9 9 11 12 12 13 13 14 15 15 15 15 14 13 13 15 15 16 16 17 17 17 16 17 17 17 19 22 21 19 19 20 22 22 21 20 20 20 20 20 19 18 17 18 20 21 22 22 21 21 21 22 22 22 21 21 20 19 18 17
7 7 6 5 5 6 7 7 7 8 8 8 7 7 7 7 7 7 7 8 8 9 10 10 9 9 9 9 9 9 10 11 11 11 11 12 13 14 15 15 14 13 13 13 13 14 15 16 18 18 17 17 17 17 18 21 21 19 18 18 20 22 22 21 21 20 21 20 19 18 17 18 20 20 21 22 23 23 24 25 25 25 23 23 22 21 20 19
5 6 6 6 6 7 7 7 7 8 9 8 9 9 8 8 8 8 8 9 9 10 10 10 10 10 10 10 10 9 10 11 11 10 11 12 12 12 13 13 13 13 14 14 12 12 12 14 15 17 18 17 16 16 16 18 21 21 20 18 18 19 21 22 21 21 22 20 20 19 17 18 19 20 21 22 23 24 25 26 26 26 25 24 23 22 21 21
4 5 6 7 8 8 8 8 8 9 9 9 10 10 9 9 8 9 9 10 10 11 11 11 10 11 11 11 10 10 11 11 11 11 11 11 11 12 12 12 12 13 14 15 14 13 12 12 13 16 17 17 16 16 15 15 18 21 21 20 21 20 21 21 20 21 23 21 21 21 19 19 18 19 20 21 23 23 24 25 26 26 26 25 24 24 23 23
5 6 7 8 8 9 8 8 8 9 10 11 11 11 11 10 9 9 10 10 11 11 11 11 11 11 12 11 11 12 12 12 11 11 11 11 11 11 11 11 12 13 14 14 15 14 14 13 14 16 17 17 16 16 17 15 15 18 18 18 21 24 24 21 20 22 23 22 22 22 19 19 20 21 22 22 23 23 23 23 24 24 25 25 25 26 26 25
5 7 8 9 9 9 8 8 8 9 10 11 12 13 12 11 10 10 10 11 11 11 11 11 11 12 12 12 13 13 13 12 12 12 12 11 11 11 11 11 11 12 13 13 14 15 15 15 16 17 17 17 17 17 16 16 15 16 16 15 17 20 20 16 15 18 20 21 24 24 20 18 20 23 24 25 25 25 25 25 25 25 25 24 23 23 24 25
7 8 9 10 10 9 8 7 7 8 9 10 12 13 13 11 10 9 10 10 10 10 9 10 10 11 11 12 12 13 13 13 13 12 12 12 11 11 11 11 11 11 11 13 13 14 15 16 17 18 17 17 18 17 14 14 15 16 18 18 17 16 15 13 10 10 13 19 23 24 24 21 20 21 23 24 25 25 26 27 26 26 26 24 22 21 21 21
9 10 11 11 11 10 8 7 7 7 8 8 9 11 12 11 10 9 9 9 9 8 8 9 10 11 11 12 12 12 12 13 12 13 12 12 12 11 11 11 11 11 11 12 13 14 15 16 16 17 17 17 17 19 18 15 14 15 17 19 17 15 15 14 12 8 9 17 22 23 26 26 23 22 23 23 24 24 24 25 25 24 24 22 21 21 20 20
10 11 12 12 10 9 7 6 6 6 7 7 7 9 11 11 11 10 10 9 9 9 8 9 10 12 10 10 11 11 11 11 12 12 12 12 11 11 11 11 12 12 12 13 13 14 14 15 16 17 17 17 17 18 17 14 11 10 11 13 12 11 11 10 11 11 11 14 21 23 24 27 27 26 26 26 25 24 24 24 23 23 22 21 20 20 20 20
11 12 12 11 9 8 7 6 5 5 5 5 7 9 11 11 11 11 11 10 9 9 9 8 9 11 10 9 9 10 10 10 10 11 11 11 11 11 11 12 12 12 12 13 13 13 14 15 17 15 13 13 13 13 13 13 12 10 10 10 9 9 9 7 6 10 12 14 18 22 24 27 30 29 28 27 26 25 24 24 23 23 22 21 21 21 21 22
12 12 12 9 7 6 6 5 4 4 3 4 6 9 11 11 11 11 12 11 10 10 10 9 9 9 10 9 8 8 8 9 9 9 10 11 11 11 12 12 12 12 13 14 14 13 14 15 14 12 10 10 11 12 12 13 13 13 14 12 11 11 11 9 7 7 11 16 20 24 26 29 31 30 28 28 27 26 25 24 24 24 24 23 23 23 24 24
12 12 10 6 5 5 5 4 3 2 1 2 4 7 9 10 10 10 11 11 11 11 10 10 9 9 10 9 9 8 8 8 8 8 9 9 9 10 10 11 12 12 13 13 13 14 14 12 11 12 13 13 13 13 13 14 13 13 15 15 14 14 13 12 11 8 8 14 19 22 26 29 30 29 28 28 28 27 27 26 26 26 25 26 26 26 26 26
12 10 6 4 3 3 3 2 2 1 0 2 4 6 8 9 9 9 10 10 10 10 10 10 10 10 10 9 10 10 9 9 9 9 9 9 9 9 9 11 12 13 13 12 12 13 12 11 13 14 13 13 14 14 14 14 13 12 14 15 15 14 13 11 11 10 9 12 15 17 20 25 28 29 30 29 28 29 28 28 28 27 27 27 27 27 27 27
10 7 4 3 2 2 1 1 2 2 1 1 3 5 7 8 8 9 9 9 9 9 9 10 10 10 9 9 10 10 10 10 10 10 11 10 10 11 10 11 12 12 12 11 11 11 11 11 13 13 12 13 13 12 12 12 12 13 14 15 15 15 14 12 10 10 10 11 14 14 14 20 26 28 29 30 29 30 30 29 29 29 29 29 29 29 29 28
7 4 3 3 2 1 1 2 2 3 2 2 3 4 6 6 7 8 8 8 8 8 9 9 9 9 9 9 9 9 9 10 9 10 11 11 12 12 12 12 12 12 12 11 11 10 11 10 11 11 11 13 13 11 12 12 13 14 14 16 17 16 16 14 12 11 10 12 16 15 9 12 23 27 28 30 30 31 31 31 31 31 31 31 31 31 31 30
4 3 3 2 1 1 1 2 2 3 3 2 3 4 6 6 8 9 8 6 6 7 8 8 8 8 9 8 8 9 8 8 8 9 9 10 12 12 13 14 14 13 13 13 11 11 12 12 11 10 10 12 14 14 14 14 14 14 14 16 17 18 18 16 16 13 11 12 15 17 14 10 14 21 26 29 31 32 32 32 32 32 32 32 32 32 31 31
3 2 2 2 2 1 1 2 2 3 3 2 2 4 6 7 9 10 7 3 2 6 9 9 8 8 9 9 9 9 7 7 8 8 8 9 10 11 12 15 14 15 16 16 13 10 12 14 13 12 12 11 13 14 14 14 14 14 15 16 15 16 16 16 17 16 13 13 12 16 21 15 12 17 22 24 26 28 30 31 31 32 32 32 32 32 32 32
3 2 2 2 1 1 1 2 2 2 2 0 1 4 6 7 8 9 5 2 1 6 8 10 10 9 8 8 9 9 7 7 8 8 8 9 9 10 11 14 14 16 18 17 15 12 11 13 13 13 13 13 14 14 14 14 13 14 14 14 13 12 11 12 14 15 14 12 13 17 19 12 11 18 21 21 23 25 26 28 28 28 29 29 30 31 32 32
3 2 2 1 1 1 1 1 1 1 0 1 2 4 6 6 8 7 3 1 3 6 7 9 10 9 8 8 9 10 8 7 8 8 8 8 9 9 11 12 13 15 17 16 15 13 9 9 10 10 11 12 14 15 16 16 14 14 13 13 13 11 10 9 10 14 11 8 16 22 20 10 8 16 20 21 25 29 29 30 29 28 27 28 28 29 31 31
3 2 2 1 2 1 1 1 0 1 2 3 4 5 6 7 8 5 1 2 5 6 7 9 10 8 8 9 9 9 9 8 8 8 8 8 9 9 10 11 11 13 15 14 13 12 10 9 8 8 8 8 10 12 14 15 15 15 14 13 13 12 12 9 8 10 6 6 17 21 20 15 7 11 19 22 26 29 30 30 30 29 28 28 29 29 30 30
4 2 2 2 2 2 2 1 1 2 3 4 5 6 7 7 7 4 1 4 6 7 8 9 10 9 8 9 9 9 10 9 9 9 9 9 10 10 11 11 11 12 12 12 12 12 11 10 9 9 9 8 9 10 11 12 13 13 13 12 10 10 10 9 7 7 4 6 10 10 15 18 11 12 19 21 25 27 28 29 29 29 28 27 27 27 28 28
4 3 3 2 3 3 2 2 2 3 3 5 6 7 8 7 6 5 4 5 5 6 9 9 11 11 9 9 9 9 10 10 10 10 9 10 10 11 12 12 13 11 10 11 13 12 12 11 11 10 10 10 11 12 12 12 11 12 12 11 7 2 2 4 3 3 5 7 5 4 9 13 16 21 21 20 22 24 25 26 26 25 24 23 24 24 25 25
4 4 3 3 3 3 3 3 4 4 5 6 7 9 9 6 4 7 9 8 5 5 8 9 10 12 10 10 10 11 11 11 11 10 10 10 11 12 12 12 14 12 9 11 14 11 10 10 11 10 10 10 11 12 12 11 11 12 12 12 9 3 2 3 2 0 4 8 8 7 7 8 14 20 19 19 22 24 25 26 24 21 19 19 21 21 22 22
4 4 4 4 4 4 4 4 5 5 6 7 8 10 11 6 4 7 10 12 9 5 7 9 10 12 12 12 12 12 12 11 11 11 10 11 11 12 13 12 13 13 10 11 13 12 8 6 8 10 9 8 10 12 12 11 10 11 13 14 12 7 3 3 3 2 2 3 5 8 7 6 9 11 12 15 18 21 23 23 21 19 18 19 21 22 24 24
5 5 5 5 5 5 5 5 5 6 7 8 10 12 13 10 8 7 9 13 13 9 8 9 11 13 13 14 13 13 13 11 11 11 11 12 12 12 13 13 13 13 12 11 11 11 9 6 7 9 9 8 8 9 11 11 9 10 13 13 12 11 8 3 1 3 2 2 3 7 8 9 11 13 15 14 16 18 16 16 16 16 16 17 18 20 22 23
6 6 6 5 6 5 5 5 6 6 7 9 11 15 15 12 9 8 8 11 13 12 11 11 12 13 14 14 14 14 13 11 10 11 10 10 11 11 12 12 12 13 13 12 11 10 9 8 8 10 9 9 9 8 9 10 9 9 10 11 11 12 11 6 3 4 3 2 4 7 8 11 11 13 17 18 18 18 13 12 14 13 14 14 15 16 17 18
6 6 6 6 6 6 5 5 5 6 7 9 11 13 14 13 12 10 9 9 11 12 13 13 12 13 14 14 15 15 14 12 11 11 10 9 8 9 10 11 11 12 14 14 12 10 9 9 10 11 10 10 10 9 9 11 10 9 9 11 11 11 10 8 2 2 1 1 3 7 11 12 9 10 16 18 16 15 12 10 11 11 11 11 11 11 12 13
7 7 7 7 6 6 5 5 6 6 7 9 11 12 12 12 12 12 11 10 11 12 14 15 13 12 13 14 14 15 14 13 12 11 11 9 7 6 8 10 10 11 13 13 12 11 10 8 9 11 11 10 10 10 9 10 12 11 10 11 10 6 6 8 4 1 1 2 2 5 9 12 13 14 14 14 12 11 10 8 8 7 7 7 7 8 9 10
8 8 7 7 6 6 6 6 6 7 8 10 11 11 11 10 10 10 11 11 11 12 14 15 14 12 13 13 12 13 13 13 12 11 10 9 7 6 7 8 9 10 12 13 12 12 11 8 6 10 11 9 9 9 10 10 11 12 12 12 12 8 6 8 7 3 2 2 2 2 3 6 12 15 14 11 9 9 9 8 7 5 6 7 8 9 10 11
8 8 8 7 7 6 6 6 6 7 8 9 9 9 9 8 8 9 10 10 11 12 13 13 13 13 13 13 12 12 12 12 12 11 10 9 8 8 8 8 9 9 9 11 12 11 12 9 7 9 11 9 8 8 9 10 10 11 11 12 12 11 9 8 8 7 4 2 2 2 3 4 8 10 10 9 7 7 9 9 8 8 9 11 12 13 13 14
8 8 8 7 7 7 6 6 6 6 7 7 7 8 8 8 8 8 9 10 11 12 12 12 12 13 13 12 12 11 11 12 12 12 11 11 9 8 8 9 9 10 9 11 12 12 11 10 9 9 10 9 9 9 9 10 10 10 11 12 13 12 10 6 5 8 8 4 3 2 3 6 8 9 9 9 8 9 11 12 13 14 15 15 15 15 15 16
8 8 8 8 8 7 7 7 7 7 7 7 7 7 7 8 8 8 9 10 11 11 12 12 12 13 12 12 12 12 11 11 12 12 12 11 11 10 9 8 8 10 10 11 12 12 11 10 9 9 9 9 9 10 10 10 11 11 11 13 14 14 14 9 4 5 8 7 5 2 3 7 11 12 13 14 14 14 16 17 18 19 18 17 17 17 18 20
8 9 9 9 8 7 7 7 7 7 7 7 7 7 7 7 7 8 8 9 10 11 12 12 12 12 12 11 11 11 11 11 11 12 12 11 11 11 11 10 8 8 9 10 10 11 10 9 9 8 6 8 9 11 11 11 11 11 11 13 13 14 16 15 11 7 5 7 7 2 2 7 10 12 14 15 16 17 18 19 19 20 20 20 21 23 24 26
9 9 9 9 8 8 8 7 6 7 7 7 7 7 7 7 7 7 8 9 10 10 11 11 11 11 11 11 10 11 12 12 10 11 12 12 11 11 11 11 10 9 9 9 9 10 10 10 9 6 1 3 6 8 10 12 11 10 10 10 10 11 13 13 13 10 6 7 9 6 4 8 9 11 13 13 15 17 17 19 20 21 23 25 27 29 30 30
9 10 9 8 8 8 8 8 7 7 7 7 7 8 7 7 7 7 8 9 10 10 10 10 11 11 11 10 11 11 11 11 9 9 11 11 10 11 11 11 10 10 10 10 10 11 11 11 11 8 3 1 3 4 6 9 12 11 10 10 9 9 10 10 10 9 7 7 11 10 7 10 12 13 14 16 18 19 21 23 25 26 28 29 31 32 32 31
9 10 9 8 9 9 8 7 7 7 7 7 7 7 7 7 7 7 8 9 9 10 10 10 10 10 10 10 10 10 11 11 9 8 8 10 10 10 10 10 10 9 10 10 10 11 11 11 13 12 9 6 5 5 4 6 10 11 11 12 11 11 12 12 10 10 9 9 13 16 17 18 18 18 20 22 23 24 26 27 29 30 31 32 32 32 31 29
9 10 9 9 8 7 6 6 6 7 7 7 7 7 7 7 7 8 8 9 9 9 9 9 9 9 9 9 10 9 9 10 10 9 8 9 10 9 9 9 9 9 9 10 10 11 10 10 12 14 13 11 10 9 7 7 10 12 12 13 13 12 13 14 12 12 11 9 11 15 17 19 20 20 22 24 25 26 28 29 31 32 31 31 31 30 29 27
9 9 10 9 8 7 7 8 7 7 7 7 7 7 6 7 7 8 8 9 8 8 9 9 9 9 8 9 9 8 8 9 10 10 9 9 10 9 9 9 8 9 9 9 10 10 10 9 10 12 12 11 10 10 10 10 11 13 13 13 13 12 13 13 13 14 15 14 14 14 16 19 18 17 20 23 24 26 28 28 29 29 29 29 29 28 28 27
9 9 10 9 8 8 8 8 8 7 7 7 7 7 7 7 8 8 8 8 8 8 8 8 8 8 8 8 8 7 8 8 8 8 8 9 9 9 10 9 8 9 9 9 9 9 8 8 8 9 9 9 9 10 11 12 13 13 13 13 13 14 15 15 14 15 18 19 17 17 20 18 12 13 19 21 22 24 25 26 26 27 27 28 28 28 28 28
9 9 10 10 9 9 9 8 8 7 7 7 7 7 7 7 8 8 7 8 8 8 8 8 7 7 7 8 8 8 8 8 7 7 8 8 9 9 10 8 7 8 9 9 9 9 8 8 7 8 8 8 9 10 11 12 13 13 13 14 15 16 15 15 15 15 17 17 14 15 20 15 10 14 19 18 20 22 23 24 25 25 26 26 27 28 28 29
9 9 10 10 10 9 8 8 8 7 7 7 7 7 7 7 8 8 8 7 7 7 8 8 7 7 8 8 8 8 8 8 7 7 8 9 9 9 9 9 8 8 9 9 9 9 9 8 7 7 7 7 9 10 10 11 14 16 17 16 16 15 13 13 12 12 14 13 12 15 18 15 13 16 18 17 19 20 21 22 23 23 24 25 26 28 29 30
9 9 10 10 10 9 8 8 8 8 8 7 7 7 7 7 7 8 8 8 7 7 8 8 8 8 8 8 8 8 8 8 7 7 8 8 8 8 8 8 7 8 9 9 9 9 9 8 7 7 6 7 8 8 9 9 11 14 14 13 12 13 12 11 11 11 11 12 14 16 16 13 13 16 16 17 18 19 20 21 22 23 25 25 27 28 29 30
Wind_Direction
280 278 283 290 295 294 295 294 294 290 276 261 252 248 245 243 242 242 241 241 242 242 240 236 233 232 231 230 229 228 227 228 228 228 226 225 223 221 220 218 217 218 217 217 216 213 212 212 212 211 212 210 206 207 209 209 208 208 209 214 220 225 227 223 212 209 218 226 228 231 236 240 244 247 245 247 245 240 243 245 241 242 241 238 237 237 237 238
281 285 291 294 297 296 297 295 298 299 286 263 248 245 244 244 242 241 240 238 239 241 241 239 236 233 230 229 229 229 229 228 227 227 226 225 225 226 225 221 218 217 217 216 213 213 212 212 212 211 212 213 209 207 207 205 206 207 211 216 219 226 228 220 213 208 211 221 227 231 236 239 241 246 247 245 246 244 243 245 242 241 243 243 242 241 243 242
285 296 301 299 298 298 297 292 294 298 289 268 250 245 244 243 242 240 238 236 235 237 239 238 236 234 231 229 229 228 228 229 228 226 224 223 224 227 227 226 223 218 216 217 216 214 213 212 209 210 211 211 210 210 208 205 207 209 213 219 221 224 225 221 221 216 215 222 229 235 240 242 241 244 248 248 249 250 247 247 247 245 246 247 248 247 248 248
287 296 302 300 299 297 296 291 289 293 288 270 256 251 247 243 238 236 235 233 231 231 234 235 233 233 231 230 229 228 228 226 226 226 225 224 224 227 227 228 228 223 219 217 217 217 220 220 214 212 212 210 210 209 208 206 210 213 216 222 225 226 225 226 228 225 226 230 235 240 245 249 247 244 246 247 248 249 250 250 250 250 249 249 249 249 248 249
285 290 298 297 296 294 294 292 286 284 282 271 260 255 252 245 236 231 228 228 227 227 230 232 231 229 229 229 229 229 226 222 225 226 225 224 224 228 227 228 229 225 221 217 218 220 224 227 223 219 215 211 211 210 210 209 212 216 219 223 224 226 223 224 228 227 230 235 239 242 246 251 250 247 245 245 247 246 247 247 248 251 252 250 250 250 248 248
286 290 296 293 290 290 290 290 283 279 278 272 262 255 254 249 239 227 222 223 225 225 228 231 229 226 227 227 227 228 225 221 226 227 224 223 222 226 226 225 227 224 220 217 217 219 223 226 224 225 221 216 215 215 213 210 213 216 219 221 222 225 222 221 226 225 227 233 239 244 248 252 251 248 244 243 245 245 245 243 243 246 249 251 252 253 251 249
291 293 294 289 285 283 285 286 282 277 274 271 262 255 253 248 240 227 220 221 223 226 228 230 229 226 226 226 226 228 226 224 228 226 224 222 221 225 226 225 226 222 219 218 217 217 221 224 223 225 223 220 218 216 211 207 212 215 213 213 216 223 222 223 229 229 229 231 235 241 246 251 251 248 242 239 242 244 244 244 242 242 245 249 252 255 256 252
292 292 291 286 280 276 280 282 279 274 272 270 263 256 252 247 241 231 225 223 224 226 227 229 228 227 227 226 228 229 228 226 228 227 224 223 222 223 224 224 223 220 219 219 219 218 219 221 222 223 219 218 217 213 211 210 214 216 211 208 211 219 223 224 230 232 234 235 235 239 244 249 251 249 243 238 241 245 245 245 245 244 245 248 251 255 257 252
292 293 290 283 273 268 271 275 272 268 267 268 264 260 253 247 243 233 227 226 226 226 227 228 226 226 225 225 228 228 225 226 228 227 225 224 221 220 220 219 218 219 219 218 220 220 220 220 222 224 218 216 215 210 212 214 218 221 215 209 212 217 223 225 228 231 235 238 239 242 246 250 251 251 248 242 243 247 248 249 249 249 249 250 252 254 255 252
295 296 292 280 267 264 266 269 267 262 262 262 259 257 254 248 244 236 228 227 228 227 227 227 226 225 223 224 228 225 222 223 224 224 225 223 220 218 215 213 211 215 218 219 219 218 218 218 219 222 218 218 217 210 213 215 218 224 219 215 215 216 221 225 227 230 233 238 241 243 246 250 249 249 251 251 249 249 251 252 253 252 252 251 253 253 254 253
298 299 297 287 273 270 268 267 263 259 257 257 255 249 249 248 244 239 230 227 228 228 228 228 228 226 224 226 228 222 221 223 223 223 224 223 222 221 220 217 213 211 216 220 220 218 218 218 220 221 217 219 218 211 215 217 217 221 221 221 221 220 223 227 229 231 234 239 242 244 248 250 248 248 251 253 253 252 253 255 255 255 254 252 252 254 255 255
299 301 308 305 291 280 273 268 261 259 257 256 254 250 247 245 244 242 235 230 229 228 229 229 228 227 225 227 227 222 220 221 223 225 224 223 223 224 226 224 219 214 214 218 218 220 222 221 225 224 221 224 219 213 219 221 221 222 223 226 227 228 230 231 233 234 235 239 244 244 245 248 248 248 250 253 253 254 255 255 256 255 254 253 252 254 257 258
303 309 315 311 300 290 281 274 265 261 259 256 254 253 250 247 246 244 240 235 232 230 229 227 226 225 225 227 227 223 220 221 222 223 223 224 222 223 226 225 221 216 215 217 214 215 222 225 228 228 227 229 219 215 224 225 225 226 225 227 229 233 237 236 236 237 237 238 242 242 242 246 248 250 252 253 254 254 256 256 256 256 255 255 255 256 257 258
323 321 318 310 301 294 287 281 271 263 259 255 253 253 253 252 249 248 244 240 235 232 229 226 224 224 225 227 227 224 222 221 220 221 222 223 222 221 223 224 221 218 218 220 217 214 219 225 229 228 227 228 222 222 225 224 227 228 228 231 231 236 241 240 241 244 242 238 241 244 246 248 249 251 251 251 252 253 254 256 257 257 256 255 256 257 258 258
332 325 319 313 305 300 293 285 276 268 261 255 252 252 253 253 251 250 246 241 238 234 231 228 225 224 225 226 226 224 223 220 219 221 222 222 222 221 220 222 221 219 219 220 220 216 214 218 226 227 225 226 224 223 222 222 224 224 226 231 233 239 246 249 248 248 246 243 243 244 245 246 245 248 250 250 252 253 254 255 257 258 258 256 255 254 256 258
330 325 323 318 312 307 300 293 281 273 266 258 252 248 248 249 248 247 245 242 239 235 232 228 227 226 224 227 228 227 225 223 221 221 222 220 219 219 219 220 219 218 217 217 218 216 212 212 217 222 223 222 220 219 221 223 224 222 223 227 233 240 246 249 246 246 244 239 238 239 240 241 240 243 247 248 251 255 256 257 258 259 259 258 257 255 254 257
330 326 324 320 315 313 307 297 284 275 269 261 252 244 241 240 238 238 239 239 237 233 229 225 225 224 223 228 229 229 229 226 224 222 222 221 219 220 219 220 219 216 216 214 215 215 214 211 213 218 221 220 219 216 214 217 223 226 226 228 232 236 239 235 229 236 237 230 228 229 232 235 237 241 246 247 249 253 257 259 261 260 260 258 259 260 258 260
328 324 324 322 319 317 312 300 287 276 270 263 252 241 234 231 229 228 229 230 229 226 222 220 219 217 223 228 225 227 229 228 226 224 224 223 223 222 219 219 218 214 213 212 213 213 213 213 213 216 218 219 218 216 215 222 232 235 234 233 232 232 237 237 229 220 220 224 222 219 224 229 233 240 245 248 250 252 255 258 261 262 262 260 259 261 263 264
324 326 327 326 325 321 315 306 293 280 268 256 242 232 227 225 223 222 222 222 221 215 213 216 214 214 223 228 224 225 227 227 227 224 223 222 221 221 219 218 218 217 215 214 213 213 213 213 214 216 221 226 226 225 228 237 248 247 239 236 234 232 237 241 238 225 210 218 222 221 225 228 230 236 242 247 250 252 255 257 260 263 265 264 261 262 262 263
324 329 331 330 332 330 324 317 300 284 265 241 220 213 216 220 220 220 219 218 219 215 214 217 217 217 221 223 224 226 226 226 225 223 222 220 219 218 216 217 217 217 215 213 213 214 214 215 221 227 235 239 239 237 237 239 243 237 214 208 219 230 228 221 232 230 214 214 221 222 227 231 231 235 240 246 249 251 253 256 259 262 265 266 265 264 263 264
327 330 331 333 340 340 335 327 311 292 259 226 203 199 205 212 217 221 220 217 217 218 217 220 221 219 220 222 224 225 224 224 223 222 221 220 220 219 217 216 212 211 211 211 212 213 216 219 225 229 228 225 224 226 226 224 227 226 216 219 234 237 228 217 221 227 213 211 216 218 224 227 229 233 239 245 248 248 250 254 258 260 263 266 267 267 267 267
329 330 331 342 356 352 342 334 326 308 256 201 188 191 196 202 209 214 214 214 215 216 217 219 220 219 220 221 223 222 217 214 213 212 213 213 213 213 215 213 207 206 209 209 208 209 212 214 211 211 211 208 206 207 207 205 206 215 225 236 247 244 240 235 231 230 214 212 215 218 222 224 227 233 239 243 246 248 251 254 257 260 262 265 267 268 269 269
330 330 339 4 15 7 356 353 358 355 333 178 177 184 191 195 199 198 202 210 211 211 215 216 216 217 218 219 223 224 222 219 216 213 213 211 208 206 207 210 208 207 207 206 207 209 206 201 202 206 205 202 202 200 198 200 205 216 230 238 243 243 242 240 233 231 227 221 224 227 227 228 231 236 239 242 245 248 252 255 258 261 263 265 267 268 269 270
331 335 2 35 28 18 32 40 54 55 57 163 176 184 191 193 193 190 195 201 197 199 208 211 212 212 215 219 223 227 227 227 226 223 222 215 210 207 204 208 210 207 206 201 199 205 203 198 201 202 198 196 199 204 206 208 212 223 235 240 242 240 240 240 233 230 230 225 228 234 238 236 236 238 240 241 244 247 250 254 257 260 262 264 266 266 268 269
336 351 27 51 34 8 39 58 79 85 88 138 162 173 179 184 184 180 183 183 179 189 199 203 209 211 211 215 220 224 225 225 226 224 223 214 207 206 204 204 205 203 203 196 191 199 200 196 195 190 192 197 199 206 212 213 216 224 234 240 241 242 242 242 237 233 234 233 230 228 237 244 238 237 240 242 244 247 250 253 255 258 260 262 264 265 266 267
350 10 27 40 22 360 17 39 67 76 82 110 141 152 156 168 171 167 165 159 164 185 190 190 197 202 204 206 209 212 211 214 216 215 216 210 205 206 204 203 204 199 194 191 194 205 209 209 204 193 192 200 206 213 218 220 221 225 233 240 243 246 246 247 246 242 237 240 236 225 226 245 240 235 240 243 245 248 250 253 254 255 257 259 261 263 264 265
6 16 16 10 2 3 22 32 41 42 48 72 124 139 150 163 167 168 162 129 167 196 194 193 193 195 203 206 204 201 201 203 204 204 205 201 201 203 201 203 203 196 194 195 197 208 217 218 220 214 207 210 215 220 225 228 228 230 236 240 245 250 250 249 246 241 237 242 243 225 224 241 250 239 240 244 246 249 251 253 255 255 257 258 260 262 264 265
1 2 356 356 355 353 16 39 37 33 36 64 147 148 160 164 166 175 167 90 198 195 194 201 201 201 208 207 202 200 201 198 194 195 195 190 193 194 193 201 205 198 200 203 201 206 216 218 225 226 222 223 224 225 227 227 227 230 234 236 238 243 245 244 238 232 233 241 247 230 221 236 258 243 241 244 247 250 252 253 256 258 259 260 261 263 264 266
346 343 337 334 333 332 360 35 33 41 137 205 187 168 168 164 169 177 162 115 196 191 192 197 198 206 211 204 200 201 198 193 192 189 181 180 186 185 184 195 205 203 205 209 208 208 211 212 220 225 225 227 226 228 230 229 229 230 234 236 235 236 235 234 229 227 227 235 245 236 220 220 260 249 242 241 244 248 252 254 257 258 259 260 261 262 264 265
332 327 323 317 311 315 320 350 341 216 210 210 205 188 175 169 170 163 127 203 198 196 201 197 195 203 201 196 198 199 196 194 195 189 180 178 181 182 182 189 199 200 202 206 207 209 210 209 212 212 214 218 220 224 228 230 231 231 234 234 233 235 233 231 234 231 229 245 248 242 229 226 251 255 241 238 243 249 253 256 257 258 259 259 261 263 265 267
322 313 307 308 307 306 308 313 262 223 217 212 212 201 185 178 173 155 139 209 202 207 210 204 203 205 197 196 200 201 198 195 192 189 186 184 181 183 186 190 195 194 196 201 202 206 209 210 213 215 216 215 218 222 225 229 230 228 229 225 225 236 237 243 249 230 220 249 255 249 233 229 235 245 241 239 245 250 253 257 259 260 261 260 262 264 266 269
314 307 308 310 310 308 304 299 270 239 227 218 216 206 192 184 195 211 204 187 195 213 211 208 209 208 202 201 202 199 196 193 191 191 192 190 188 190 192 196 198 193 193 199 199 205 211 216 220 224 227 223 221 225 227 230 229 228 228 218 211 221 232 247 248 214 230 249 258 234 215 221 233 243 246 245 247 250 253 258 260 260 261 262 264 266 268 271
308 306 312 313 311 306 297 291 273 251 235 223 217 207 194 183 215 226 209 194 198 211 206 208 211 208 205 202 201 198 195 194 195 195 196 197 196 198 199 203 205 202 199 197 196 197 202 213 218 219 224 223 222 223 224 228 228 228 227 212 198 160 120 228 231 292 264 252 244 222 202 220 238 245 250 249 250 254 255 259 263 264 265 267 269 272 275 276
314 312 314 312 308 300 290 281 265 251 238 227 218 206 199 203 232 229 215 211 218 214 200 204 207 205 204 204 204 203 200 200 203 202 204 205 203 204 206 205 207 211 207 195 195 197 194 207 216 214 219 220 218 218 217 219 219 220 221 212 204 194 177 198 194 184 243 255 235 205 199 232 236 236 247 249 252 255 255 259 266 271 272 272 272 274 276 278
321 318 314 309 301 293 285 274 260 247 236 228 219 208 208 222 238 237 226 221 223 222 210 207 204 201 203 205 207 208 206 207 211 213 214 215 212 212 211 209 209 211 204 194 195 199 199 208 212 206 206 201 198 203 205 206 206 211 214 211 209 212 211 209 219 232 250 333 265 206 214 246 242 238 244 246 251 256 258 265 271 277 278 276 276 276 278 282
324 319 314 306 297 292 285 275 265 251 238 227 218 216 221 232 243 243 234 225 224 225 216 205 202 204 207 209 209 209 209 214 219 216 213 215 216 216 213 211 211 209 203 197 196 197 195 203 213 207 202 201 196 196 198 197 201 209 211 210 213 218 222 231 277 275 266 306 253 216 228 248 247 249 249 245 251 260 268 273 273 280 283 282 285 283 285 289
323 316 308 301 295 294 288 276 265 253 243 231 224 227 234 240 246 246 240 230 225 224 215 203 201 208 212 213 213 212 213 217 220 216 210 207 210 216 214 211 211 208 206 203 202 204 195 194 211 212 210 217 216 211 208 206 211 214 212 213 216 222 227 224 250 330 261 252 252 221 229 242 238 247 254 249 252 260 268 274 275 280 286 290 292 293 296 298
319 310 304 300 297 293 286 273 259 250 244 237 235 241 246 247 248 246 243 236 228 223 216 207 207 213 215 216 217 217 216 217 218 215 209 204 204 214 214 212 213 211 209 207 206 210 202 191 208 214 214 224 223 217 217 218 220 221 218 215 211 216 218 200 191 349 203 228 291 240 234 242 234 233 245 248 248 256 266 274 276 280 290 299 306 312 316 318
315 309 303 300 298 293 285 273 260 251 244 241 243 247 250 249 248 245 240 235 228 220 215 213 216 219 220 220 218 217 215 215 217 212 206 206 211 221 219 212 213 213 211 209 208 210 207 197 206 214 215 224 227 224 224 224 226 225 222 218 216 219 212 195 197 203 177 191 272 279 263 242 232 234 243 248 248 256 267 274 278 284 294 302 312 318 319 320
312 307 301 298 296 292 286 274 264 256 248 246 245 244 247 248 247 244 237 232 225 218 216 218 221 225 227 225 223 222 218 216 217 214 212 215 216 225 229 221 217 218 215 213 212 213 212 210 208 212 217 224 225 223 220 221 225 223 220 219 220 223 217 211 222 220 192 158 186 239 283 246 229 239 250 254 252 255 263 272 282 290 296 300 304 308 309 310
309 303 299 298 297 293 288 278 269 262 253 248 245 244 249 252 251 247 237 229 223 219 221 223 225 231 234 233 231 230 225 223 222 220 222 226 225 226 232 229 224 225 221 217 216 215 215 217 211 208 216 221 221 225 224 225 229 228 226 225 225 222 211 202 230 223 210 211 198 195 270 263 249 251 262 269 270 270 274 280 287 293 296 298 298 300 302 302
306 302 301 300 299 295 288 281 274 266 256 249 248 250 255 256 252 245 235 227 224 223 226 228 231 235 237 237 234 231 230 229 228 227 229 233 232 233 235 233 229 227 223 219 220 218 218 219 209 201 210 218 223 233 236 241 244 240 237 233 228 225 215 203 208 209 203 218 230 228 286 266 255 254 262 269 272 276 281 284 288 292 294 296 299 302 303 304
304 301 301 300 298 295 287 281 274 265 257 252 254 257 259 258 250 242 234 228 228 230 232 235 236 238 239 239 236 233 230 228 230 233 234 236 236 235 237 235 229 226 220 215 217 215 213 215 204 194 210 227 236 244 246 249 250 242 237 233 227 225 222 219 223 222 210 217 213 191 253 247 249 257 262 268 274 277 280 281 284 287 290 296 300 302 303 303
304 300 300 300 297 294 288 282 274 267 261 257 257 261 261 255 248 243 237 232 232 234 236 239 239 239 241 239 237 235 228 226 233 236 235 238 237 232 234 232 228 223 216 214 216 210 208 209 197 170 157 261 260 258 248 239 233 229 225 218 214 217 218 223 231 231 237 234 213 199 246 252 254 265 270 275 277 276 276 278 282 286 289 293 295 297 299 300
303 300 299 298 297 296 290 281 273 268 263 260 260 262 260 254 248 243 238 234 234 236 237 239 239 239 240 237 234 232 226 225 234 237 235 236 233 229 229 227 226 224 219 217 215 208 208 211 202 185 157 212 247 257 240 222 214 212 209 200 205 219 222 230 233 222 225 232 216 212 249 266 266 275 281 281 279 279 282 285 285 286 288 291 293 296 298 299
300 299 297 299 299 296 289 280 273 267 260 259 263 261 257 255 249 241 236 234 236 237 238 239 239 237 236 232 230 229 225 223 227 233 234 230 226 224 224 225 225 222 220 220 215 210 214 217 217 218 223 233 246 253 235 205 202 207 211 217 229 239 237 236 231 221 224 233 235 240 253 265 272 279 281 281 284 288 290 289 289 290 292 294 295 297 298 299
298 296 294 299 300 292 283 279 276 269 260 260 262 259 256 255 247 239 236 236 236 238 238 237 235 233 230 228 227 226 223 219 222 229 230 220 215 216 219 221 219 214 216 218 213 212 218 224 225 227 234 245 254 254 245 229 222 227 235 243 248 250 245 238 235 236 237 240 254 259 261 267 274 280 283 286 290 290 288 289 291 293 295 295 296 297 298 299
293 293 291 293 292 284 281 279 273 267 263 260 259 256 256 253 245 239 236 235 236 235 233 233 229 226 225 222 221 223 219 215 219 224 221 212 208 209 211 212 212 211 212 213 211 212 218 227 229 228 232 240 244 246 247 244 242 244 248 252 253 252 253 251 247 248 247 246 257 270 275 277 285 292 290 289 287 285 285 287 290 292 293 295 296 298 299 300
289 290 291 289 288 285 282 277 270 266 261 256 254 254 254 251 242 238 234 232 234 231 228 229 224 221 221 217 215 216 212 212 218 216 211 207 204 204 205 207 210 209 204 205 208 208 214 225 227 225 228 231 234 241 246 248 251 251 250 251 251 249 252 255 253 253 255 257 265 275 279 283 300 299 285 281 282 283 286 289 290 292 294 296 299 300 301 302
287 288 289 289 289 287 282 276 270 264 255 250 253 252 250 245 239 236 233 231 233 228 222 223 220 216 215 211 208 208 204 208 215 206 199 198 198 201 203 205 208 203 199 204 205 204 213 226 224 219 224 232 237 240 243 248 254 254 250 250 251 250 248 249 251 252 256 264 275 278 278 287 304 290 283 286 288 287 289 291 292 294 296 297 299 300 301 301
285 287 287 287 287 284 281 278 269 262 252 248 252 252 248 243 238 235 233 230 230 224 216 216 215 210 207 203 203 203 201 203 205 198 194 195 196 199 203 207 206 199 198 203 205 205 213 223 223 217 224 240 242 243 250 259 267 268 259 248 246 248 245 242 243 246 253 264 271 269 276 291 297 287 289 294 292 292 295 296 296 297 296 296 297 298 300 300
283 286 286 285 285 283 280 276 268 263 257 249 250 250 247 244 235 230 230 228 224 216 211 213 210 203 201 201 201 200 197 198 199 196 193 195 199 202 205 207 205 201 201 203 205 209 211 217 219 213 225 243 237 242 261 276 289 282 259 235 233 237 236 236 239 245 254 261 265 270 282 295 294 290 297 300 298 300 301 300 299 299 298 298 298 298 298 297
Height
3050 3049 3049 3049 3049 3049 3049 3049 3049 3049 3049 3049 3049 3050 3051 3051 3053 3054 3054 3055 3056 3057 3058 3058 3059 3060 3061 3062 3064 3065 3066 3067 3068 3069 3069 3070 3070 3071 3071 3072 3073 3074 3075 3076 3077 3078 3079 3079 3081 3082 3083 3085 3086 3086 3088 3089 3091 3093 3093 3094 3095 3096 3097 3100 3102 3103 3104 3104 3105 3105 3106 3107 3108 3108 3109 3110 3110 3111 3111 3112 3113 3113 3113 3114 3114 3115 3115 3116
3048 3048 3048 3048 3048 3048 3048 3048 3048 3048 3048 3048 3048 3048 3049 3050 3051 3052 3053 3053 3054 3055 3056 3056 3057 3058 3059 3060 3062 3063 3064 3065 3067 3067 3068 3068 3069 3070 3070 3071 3072 3072 3073 3074 3075 3077 3077 3078 3080 3081 3082 3083 3084 3085 3086 3088 3089 3090 3091 3092 3093 3094 3097 3100 3101 3101 3102 3102 3103 3104 3104 3105 3106 3107 3107 3108 3108 3109 3110 3111 3112 3112 3112 3113 3113 3114 3115 3116
3047 3047 3047 3047 3047 3047 3047 3046 3046 3046 3046 3047 3047 3047 3048 3048 3049 3050 3051 3052 3053 3053 3054 3055 3055 3056 3057 3059 3060 3061 3063 3064 3065 3066 3066 3067 3068 3068 3069 3070 3070 3071 3072 3073 3074 3075 3076 3077 3078 3079 3080 3082 3083 3084 3085 3086 3087 3088 3089 3089 3091 3094 3096 3098 3098 3099 3100 3101 3101 3102 3103 3104 3105 3106 3106 3107 3107 3108 3108 3109 3110 3110 3110 3111 3112 3113 3114 3114
3046 3046 3046 3045 3045 3045 3045 3045 3045 3045 3045 3045 3046 3046 3046 3047 3048 3048 3049 3050 3051 3052 3052 3053 3053 3054 3056 3057 3058 3060 3061 3062 3063 3064 3065 3066 3066 3067 3068 3069 3069 3071 3071 3072 3073 3074 3074 3076 3077 3078 3079 3080 3081 3082 3083 3085 3086 3087 3087 3088 3091 3093 3095 3096 3097 3098 3098 3099 3100 3101 3102 3102 3104 3105 3105 3106 3106 3106 3107 3108 3108 3108 3109 3109 3110 3111 3112 3113
3045 3045 3045 3044 3044 3044 3044 3044 3044 3044 3044 3044 3045 3045 3045 3046 3046 3047 3048 3048 3049 3050 3051 3051 3052 3053 3054 3055 3056 3058 3059 3060 3061 3062 3063 3064 3065 3065 3066 3067 3068 3070 3071 3071 3072 3073 3074 3075 3076 3076 3077 3079 3079 3080 3082 3083 3084 3085 3086 3088 3090 3092 3093 3094 3095 3096 3097 3097 3098 3099 3100 3101 3102 3103 3104 3104 3105 3105 3106 3106 3107 3107 3107 3108 3108 3109 3110 3111
3044 3044 3044 3043 3043 3043 3043 3043 3042 3042 3043 3043 3043 3044 3044 3045 3045 3046 3046 3047 3048 3049 3049 3050 3051 3052 3052 3053 3055 3056 3058 3058 3059 3060 3062 3063 3064 3064 3065 3066 3067 3069 3070 3070 3071 3072 3072 3073 3075 3076 3076 3077 3078 3079 3081 3082 3083 3083 3085 3087 3089 3090 3091 3092 3092 3094 3095 3096 3097 3098 3099 3100 3101 3102 3102 3103 3103 3104 3105 3105 3105 3106 3106 3106 3106 3107 3108 3109
3043 3043 3042 3042 3042 3042 3042 3041 3041 3041 3041 3042 3042 3043 3043 3044 3044 3044 3045 3046 3046 3047 3048 3049 3050 3050 3051 3052 3053 3055 3056 3057 3058 3059 3060 3061 3062 3063 3064 3065 3066 3068 3068 3069 3070 3070 3071 3072 3074 3075 3076 3076 3077 3078 3080 3081 3081 3082 3084 3086 3087 3088 3089 3090 3090 3092 3093 3095 3096 3097 3098 3098 3099 3100 3101 3101 3102 3102 3103 3103 3104 3104 3104 3104 3104 3105 3106 3106
3041 3041 3041 3041 3041 3041 3041 3040 3040 3040 3040 3041 3041 3042 3042 3042 3043 3043 3044 3044 3045 3046 3047 3048 3048 3049 3050 3051 3052 3053 3054 3055 3056 3057 3058 3059 3060 3061 3062 3064 3065 3066 3066 3067 3068 3069 3070 3071 3073 3074 3075 3075 3076 3078 3079 3079 3080 3081 3083 3085 3086 3086 3088 3089 3089 3090 3091 3093 3094 3095 3096 3097 3098 3099 3099 3100 3100 3100 3101 3101 3102 3102 3102 3103 3103 3103 3104 3104
3040 3039 3039 3039 3039 3039 3039 3039 3039 3039 3039 3039 3040 3040 3041 3041 3041 3042 3042 3043 3044 3045 3046 3046 3047 3048 3049 3050 3051 3052 3053 3054 3055 3056 3057 3058 3059 3060 3061 3062 3064 3064 3065 3066 3067 3068 3069 3070 3071 3072 3074 3075 3075 3077 3077 3078 3078 3079 3082 3083 3084 3085 3086 3087 3088 3089 3090 3091 3092 3093 3095 3095 3096 3097 3097 3098 3099 3099 3099 3100 3100 3101 3101 3101 3101 3101 3102 3102
3038 3037 3037 3037 3037 3038 3038 3038 3038 3038 3038 3038 3039 3039 3039 3040 3040 3041 3041 3042 3042 3043 3044 3045 3046 3047 3048 3049 3050 3051 3052 3053 3054 3054 3055 3056 3058 3058 3059 3061 3062 3063 3064 3064 3065 3067 3068 3069 3070 3071 3073 3073 3074 3076 3076 3076 3077 3078 3080 3081 3082 3083 3084 3085 3086 3087 3088 3089 3090 3092 3093 3093 3094 3094 3095 3095 3097 3097 3097 3098 3098 3098 3099 3099 3099 3099 3100 3100
3036 3036 3035 3036 3036 3036 3036 3036 3036 3036 3037 3037 3038 3038 3038 3039 3039 3040 3040 3041 3041 3042 3043 3044 3045 3046 3047 3048 3049 3050 3051 3052 3052 3053 3054 3055 3056 3057 3058 3059 3060 3062 3062 3063 3064 3066 3067 3068 3068 3070 3071 3072 3073 3075 3075 3075 3076 3077 3079 3080 3081 3081 3082 3083 3084 3086 3087 3088 3089 3091 3092 3091 3092 3092 3092 3093 3094 3095 3095 3096 3096 3096 3097 3097 3098 3098 3098 3099
3035 3034 3034 3034 3035 3035 3035 3035 3035 3035 3035 3036 3037 3037 3037 3038 3038 3039 3039 3040 3040 3041 3042 3043 3044 3045 3046 3047 3048 3049 3050 3050 3051 3052 3053 3054 3055 3056 3056 3057 3059 3060 3061 3062 3063 3065 3066 3066 3067 3069 3070 3070 3072 3074 3074 3074 3075 3076 3077 3079 3079 3080 3080 3081 3083 3084 3085 3087 3088 3089 3090 3089 3089 3090 3090 3091 3092 3092 3093 3093 3093 3094 3095 3095 3096 3097 3097 3097
3034 3034 3034 3033 3033 3033 3033 3034 3034 3034 3034 3034 3035 3035 3036 3037 3037 3038 3038 3039 3039 3040 3041 3042 3043 3044 3045 3046 3047 3048 3049 3049 3050 3051 3052 3053 3054 3055 3055 3056 3058 3059 3060 3061 3062 3064 3065 3066 3067 3068 3069 3070 3071 3072 3072 3073 3074 3075 3077 3078 3078 3079 3078 3079 3081 3082 3084 3085 3086 3087 3088 3087 3088 3088 3088 3089 3089 3089 3090 3090 3091 3091 3092 3093 3094 3095 3095 3095
3033 3033 3033 3033 3033 3032 3032 3032 3032 3032 3032 3033 3033 3034 3035 3035 3036 3037 3037 3038 3038 3039 3040 3041 3042 3043 3044 3044 3046 3047 3047 3048 3049 3050 3051 3052 3053 3053 3054 3055 3057 3058 3059 3059 3061 3062 3064 3065 3065 3066 3067 3068 3070 3071 3072 3073 3073 3074 3076 3076 3077 3077 3077 3078 3080 3080 3082 3083 3084 3085 3085 3085 3086 3086 3086 3086 3086 3087 3087 3087 3088 3089 3090 3091 3092 3092 3093 3093
3033 3033 3032 3032 3032 3031 3031 3030 3030 3030 3031 3031 3032 3033 3033 3034 3035 3035 3036 3036 3037 3038 3039 3040 3041 3041 3042 3043 3044 3045 3046 3047 3048 3049 3050 3051 3052 3052 3053 3054 3055 3056 3057 3058 3060 3061 3062 3063 3064 3065 3066 3067 3069 3070 3070 3072 3072 3073 3074 3074 3075 3075 3075 3077 3079 3078 3079 3081 3082 3083 3082 3082 3083 3083 3083 3083 3083 3085 3085 3085 3086 3087 3087 3088 3089 3090 3090 3090
3032 3032 3032 3031 3030 3030 3029 3029 3029 3029 3029 3030 3030 3031 3032 3033 3033 3034 3034 3035 3036 3037 3038 3039 3039 3040 3041 3042 3043 3043 3044 3045 3047 3048 3049 3050 3050 3051 3052 3053 3054 3055 3056 3057 3058 3059 3061 3061 3062 3063 3064 3066 3067 3068 3069 3071 3071 3072 3073 3073 3073 3074 3074 3076 3076 3076 3077 3079 3079 3080 3080 3080 3080 3080 3080 3080 3081 3082 3082 3083 3083 3084 3085 3085 3086 3087 3087 3088
3031 3031 3030 3029 3029 3028 3028 3027 3027 3027 3028 3028 3029 3029 3030 3031 3032 3032 3033 3034 3035 3036 3037 3038 3038 3039 3040 3040 3041 3042 3043 3044 3045 3047 3048 3048 3049 3050 3051 3052 3053 3054 3055 3056 3057 3058 3059 3059 3060 3061 3062 3064 3065 3067 3068 3069 3069 3070 3070 3071 3071 3072 3072 3073 3074 3074 3075 3076 3077 3077 3078 3078 3078 3078 3078 3078 3079 3079 3080 3080 3080 3081 3082 3083 3083 3084 3084 3085
3030 3029 3029 3028 3027 3026 3026 3026 3026 3026 3026 3026 3027 3028 3029 3030 3030 3031 3032 3032 3033 3035 3036 3036 3037 3038 3038 3039 3040 3041 3042 3043 3044 3045 3046 3047 3048 3049 3050 3051 3051 3053 3053 3054 3055 3056 3057 3058 3059 3060 3061 3062 3063 3064 3065 3066 3067 3068 3068 3068 3069 3070 3070 3071 3072 3073 3073 3074 3075 3075 3075 3075 3076 3076 3076 3076 3076 3077 3078 3078 3078 3078 3079 3080 3081 3081 3082 3082
3029 3028 3027 3026 3025 3025 3024 3024 3024 3024 3025 3025 3025 3026 3027 3028 3029 3030 3030 3031 3032 3034 3035 3035 3036 3036 3037 3038 3039 3040 3041 3042 3043 3044 3045 3046 3047 3048 3048 3049 3050 3051 3052 3053 3053 3054 3055 3057 3057 3058 3059 3060 3061 3062 3063 3065 3066 3066 3066 3067 3068 3068 3069 3069 3070 3071 3071 3072 3073 3073 3073 3074 3074 3074 3073 3073 3074 3075 3075 3076 3076 3076 3077 3078 3078 3079 3080 3080
3028 3027 3026 3025 3024 3023 3023 3023 3023 3023 3023 3024 3024 3025 3026 3027 3028 3029 3029 3031 3032 3033 3033 3034 3035 3036 3036 3037 3038 3039 3040 3041 3042 3042 3043 3044 3045 3046 3047 3048 3049 3050 3050 3051 3052 3053 3054 3055 3055 3057 3058 3059 3060 3062 3063 3064 3065 3065 3065 3066 3066 3067 3067 3068 3069 3069 3069 3070 3071 3071 3072 3071 3071 3071 3071 3071 3072 3073 3073 3073 3074 3074 3075 3075 3076 3077 3078 3078
3027 3026 3025 3024 3023 3022 3022 3022 3022 3022 3023 3023 3023 3024 3025 3026 3027 3028 3029 3030 3031 3031 3032 3033 3034 3035 3036 3037 3037 3038 3039 3040 3040 3041 3042 3043 3044 3045 3045 3046 3047 3048 3049 3049 3051 3051 3052 3053 3054 3056 3057 3058 3059 3060 3061 3062 3063 3063 3064 3064 3065 3065 3066 3067 3067 3067 3068 3068 3068 3069 3069 3069 3069 3069 3070 3070 3070 3070 3071 3071 3072 3072 3073 3074 3074 3075 3076 3076
3026 3025 3024 3024 3023 3022 3022 3022 3022 3022 3022 3022 3022 3023 3024 3025 3026 3027 3028 3029 3030 3030 3031 3032 3033 3034 3035 3036 3037 3037 3038 3039 3039 3040 3041 3042 3043 3044 3044 3045 3046 3046 3047 3048 3049 3050 3051 3052 3053 3054 3054 3056 3057 3057 3058 3060 3061 3061 3062 3062 3063 3063 3064 3065 3066 3066 3067 3067 3067 3067 3067 3066 3067 3067 3068 3068 3068 3068 3069 3069 3070 3071 3071 3072 3072 3073 3073 3074
3025 3024 3024 3023 3023 3023 3022 3022 3021 3021 3021 3022 3022 3023 3024 3024 3025 3026 3027 3028 3029 3030 3030 3031 3032 3033 3034 3035 3036 3036 3037 3038 3038 3039 3040 3041 3042 3043 3044 3044 3044 3045 3046 3047 3048 3049 3050 3050 3051 3051 3053 3054 3055 3056 3057 3058 3059 3059 3060 3060 3061 3062 3063 3063 3064 3065 3066 3066 3065 3066 3066 3065 3065 3065 3065 3066 3066 3066 3067 3067 3068 3068 3069 3069 3070 3070 3070 3071
3024 3024 3023 3023 3023 3022 3022 3022 3021 3021 3022 3022 3022 3023 3023 3024 3025 3026 3027 3028 3028 3029 3030 3031 3031 3032 3033 3034 3035 3036 3036 3037 3037 3038 3039 3040 3041 3042 3043 3043 3043 3044 3045 3046 3047 3047 3048 3049 3049 3050 3052 3053 3053 3054 3055 3056 3057 3057 3058 3058 3059 3060 3061 3062 3063 3064 3064 3065 3064 3065 3065 3063 3063 3063 3063 3064 3064 3064 3064 3065 3066 3066 3066 3067 3067 3067 3068 3068
3023 3023 3023 3023 3023 3022 3022 3022 3022 3022 3022 3022 3022 3023 3023 3024 3025 3026 3027 3027 3028 3029 3030 3030 3031 3032 3033 3034 3034 3035 3035 3036 3036 3037 3038 3039 3040 3041 3042 3042 3042 3043 3044 3045 3045 3046 3047 3048 3048 3050 3051 3052 3052 3053 3054 3055 3056 3056 3056 3057 3057 3058 3059 3060 3061 3062 3063 3063 3063 3064 3064 3060 3059 3060 3061 3061 3061 3061 3062 3062 3063 3063 3063 3064 3064 3064 3065 3065
3023 3022 3022 3022 3022 3022 3022 3022 3022 3022 3022 3023 3023 3023 3024 3024 3025 3026 3026 3027 3028 3029 3029 3030 3031 3032 3032 3033 3033 3034 3034 3035 3035 3036 3037 3038 3039 3039 3040 3041 3041 3042 3042 3043 3044 3045 3046 3046 3047 3049 3050 3050 3051 3052 3053 3054 3055 3055 3055 3055 3056 3057 3058 3059 3059 3060 3061 3060 3060 3062 3061 3058 3057 3058 3058 3058 3058 3058 3059 3059 3059 3060 3061 3061 3061 3061 3062 3062
3023 3022 3022 3022 3022 3022 3021 3021 3021 3022 3022 3023 3023 3023 3024 3024 3025 3025 3026 3028 3029 3029 3029 3029 3030 3031 3031 3032 3033 3033 3034 3034 3034 3035 3036 3037 3037 3038 3039 3040 3040 3041 3041 3042 3043 3044 3044 3045 3046 3048 3049 3049 3050 3051 3052 3052 3053 3054 3053 3054 3054 3055 3056 3056 3057 3058 3058 3058 3058 3059 3059 3057 3055 3055 3056 3055 3056 3056 3056 3056 3056 3057 3058 3058 3059 3059 3059 3059
3023 3022 3022 3022 3022 3022 3021 3021 3021 3022 3022 3023 3023 3023 3024 3024 3025 3025 3026 3027 3028 3027 3028 3029 3029 3030 3030 3031 3032 3032 3033 3033 3034 3034 3035 3036 3036 3037 3038 3038 3039 3040 3040 3041 3042 3042 3043 3044 3045 3046 3047 3048 3049 3050 3050 3051 3052 3052 3052 3053 3053 3054 3054 3055 3056 3056 3056 3057 3056 3055 3057 3056 3052 3051 3053 3053 3053 3053 3052 3053 3054 3054 3055 3056 3056 3056 3056 3056
3023 3022 3022 3021 3022 3022 3021 3021 3022 3022 3022 3023 3023 3023 3024 3024 3025 3025 3026 3026 3026 3026 3027 3028 3028 3029 3030 3030 3031 3031 3032 3032 3033 3033 3034 3035 3035 3036 3037 3037 3038 3039 3039 3040 3041 3041 3042 3043 3044 3045 3046 3047 3047 3048 3048 3049 3050 3050 3051 3051 3052 3053 3053 3054 3055 3054 3056 3055 3051 3051 3055 3054 3050 3048 3050 3050 3049 3049 3049 3050 3051 3051 3052 3053 3053 3053 3052 3052
3023 3022 3022 3021 3021 3021 3021 3021 3021 3022 3022 3022 3023 3023 3023 3024 3024 3025 3026 3025 3025 3025 3026 3027 3027 3028 3029 3029 3030 3030 3031 3032 3032 3033 3033 3034 3034 3035 3036 3036 3037 3038 3038 3040 3040 3041 3042 3042 3043 3044 3045 3045 3046 3046 3047 3047 3048 3049 3050 3050 3051 3052 3052 3054 3054 3054 3056 3052 3047 3048 3053 3053 3050 3046 3046 3047 3045 3045 3046 3047 3048 3048 3049 3050 3050 3050 3049 3049
3022 3022 3022 3022 3021 3021 3021 3021 3021 3021 3022 3022 3022 3023 3023 3024 3024 3025 3025 3024 3024 3025 3025 3026 3026 3027 3028 3028 3029 3030 3030 3031 3031 3032 3032 3033 3034 3034 3035 3035 3036 3037 3038 3039 3039 3040 3041 3041 3042 3043 3043 3044 3044 3045 3045 3046 3046 3047 3048 3049 3051 3051 3051 3053 3052 3053 3054 3049 3045 3047 3050 3052 3049 3043 3042 3043 3043 3043 3044 3044 3045 3046 3046 3047 3047 3047 3046 3046
3022 3022 3022 3022 3021 3021 3021 3021 3021 3021 3022 3022 3022 3022 3023 3024 3024 3023 3023 3023 3024 3024 3024 3025 3025 3026 3027 3028 3028 3029 3030 3030 3031 3031 3032 3032 3033 3033 3034 3034 3035 3035 3036 3037 3038 3039 3039 3040 3041 3041 3042 3043 3043 3043 3044 3044 3045 3046 3047 3048 3050 3051 3052 3052 3051 3052 3050 3045 3045 3046 3048 3048 3045 3040 3040 3041 3041 3041 3041 3041 3042 3043 3044 3044 3044 3044 3044 3044
3022 3021 3021 3021 3021 3021 3021 3021 3021 3021 3021 3021 3022 3022 3023 3023 3022 3021 3021 3022 3022 3022 3023 3024 3025 3025 3026 3027 3028 3028 3029 3029 3030 3030 3031 3032 3032 3033 3033 3033 3033 3034 3034 3035 3036 3037 3038 3039 3039 3040 3040 3041 3041 3042 3042 3043 3044 3044 3045 3047 3048 3049 3051 3051 3050 3050 3047 3044 3044 3046 3047 3045 3041 3039 3038 3039 3039 3040 3040 3040 3040 3041 3042 3042 3042 3042 3041 3041
3021 3021 3021 3021 3021 3021 3021 3021 3020 3020 3020 3021 3021 3021 3022 3022 3020 3020 3021 3021 3021 3022 3023 3023 3024 3025 3025 3026 3027 3027 3028 3028 3029 3029 3030 3031 3031 3031 3032 3032 3032 3033 3033 3034 3035 3036 3037 3038 3038 3038 3039 3039 3040 3040 3041 3041 3042 3043 3043 3044 3045 3046 3047 3046 3046 3046 3045 3043 3043 3044 3044 3040 3037 3037 3036 3037 3038 3037 3037 3038 3038 3039 3040 3040 3040 3039 3039 3039
3020 3020 3020 3020 3020 3020 3020 3020 3019 3020 3020 3020 3020 3020 3020 3020 3019 3019 3020 3020 3021 3021 3022 3023 3023 3024 3025 3025 3026 3026 3027 3027 3028 3028 3029 3029 3029 3030 3030 3030 3031 3031 3032 3032 3034 3035 3036 3036 3036 3037 3037 3038 3038 3039 3039 3040 3041 3041 3042 3043 3043 3043 3043 3043 3043 3043 3043 3044 3042 3041 3039 3036 3035 3036 3035 3036 3035 3035 3036 3037 3037 3037 3037 3037 3038 3037 3037 3037
3020 3019 3019 3019 3019 3019 3019 3019 3019 3019 3019 3019 3019 3019 3018 3018 3018 3018 3019 3019 3020 3020 3021 3022 3023 3023 3023 3024 3024 3025 3025 3026 3026 3027 3027 3027 3028 3028 3028 3029 3029 3030 3030 3031 3032 3033 3034 3035 3035 3035 3036 3037 3037 3038 3038 3039 3040 3040 3041 3041 3042 3042 3042 3043 3043 3042 3043 3043 3040 3037 3035 3034 3034 3034 3033 3033 3034 3034 3035 3036 3035 3036 3035 3036 3036 3035 3035 3035
3019 3019 3018 3018 3018 3018 3018 3018 3018 3017 3018 3018 3017 3017 3017 3017 3017 3017 3018 3018 3018 3019 3020 3020 3021 3022 3022 3022 3023 3023 3024 3024 3025 3025 3025 3026 3026 3026 3026 3027 3028 3028 3029 3030 3030 3031 3032 3033 3034 3034 3035 3036 3036 3037 3037 3038 3039 3039 3040 3040 3041 3041 3042 3043 3043 3043 3043 3042 3037 3034 3033 3032 3032 3031 3030 3031 3033 3033 3034 3034 3034 3034 3034 3034 3034 3034 3034 3033
3018 3018 3018 3017 3017 3017 3017 3016 3016 3016 3016 3016 3016 3016 3015 3015 3016 3016 3016 3017 3017 3018 3018 3019 3020 3020 3020 3021 3021 3022 3022 3023 3023 3023 3024 3024 3024 3024 3025 3025 3026 3027 3028 3029 3029 3030 3031 3032 3032 3033 3034 3034 3035 3036 3036 3037 3037 3038 3038 3039 3039 3040 3040 3041 3042 3042 3042 3041 3036 3032 3032 3030 3029 3028 3028 3029 3031 3032 3032 3032 3032 3032 3032 3033 3033 3033 3033 3032
3017 3017 3016 3016 3016 3015 3015 3015 3015 3015 3015 3014 3014 3014 3014 3014 3014 3014 3015 3015 3015 3016 3017 3017 3018 3019 3019 3019 3019 3020 3020 3021 3021 3021 3021 3022 3022 3023 3024 3024 3025 3026 3026 3027 3028 3029 3029 3030 3031 3032 3032 3033 3034 3034 3035 3035 3036 3036 3037 3037 3038 3038 3039 3039 3039 3039 3039 3039 3036 3033 3030 3027 3026 3026 3027 3028 3030 3031 3031 3031 3031 3031 3031 3031 3031 3031 3031 3031
3016 3016 3015 3015 3014 3014 3014 3013 3013 3013 3013 3012 3012 3012 3012 3012 3012 3013 3013 3013 3014 3014 3015 3016 3016 3017 3017 3017 3018 3018 3018 3019 3019 3019 3020 3020 3021 3022 3022 3023 3024 3024 3025 3026 3027 3028 3028 3029 3030 3031 3031 3032 3032 3033 3033 3033 3034 3035 3035 3036 3036 3037 3037 3037 3037 3037 3037 3037 3036 3034 3029 3024 3024 3026 3026 3027 3029 3029 3030 3029 3029 3030 3030 3030 3030 3030 3030 3029
3015 3015 3014 3013 3013 3012 3012 3012 3012 3011 3011 3011 3011 3011 3011 3011 3011 3011 3011 3012 3012 3013 3013 3014 3015 3015 3015 3016 3016 3016 3017 3017 3017 3018 3018 3019 3019 3020 3021 3022 3023 3023 3024 3025 3025 3026 3027 3028 3029 3029 3030 3030 3031 3031 3031 3032 3032 3033 3033 3034 3034 3035 3035 3036 3036 3035 3035 3035 3034 3034 3029 3022 3023 3025 3025 3026 3027 3028 3028 3028 3028 3028 3028 3028 3028 3028 3028 3028
3014 3014 3013 3012 3012 3011 3010 3010 3010 3010 3009 3009 3009 3009 3009 3009 3009 3009 3010 3010 3011 3011 3012 3012 3013 3013 3014 3014 3014 3014 3015 3015 3016 3016 3017 3017 3018 3018 3019 3020 3021 3022 3023 3023 3024 3025 3026 3027 3027 3028 3028 3029 3029 3030 3030 3030 3031 3031 3031 3031 3032 3033 3033 3034 3033 3032 3034 3033 3033 3034 3030 3022 3022 3024 3025 3025 3026 3026 3026 3026 3026 3026 3025 3025 3025 3025 3025 3025
3013 3012 3011 3011 3010 3010 3009 3009 3008 3008 3008 3008 3008 3008 3008 3008 3008 3008 3008 3009 3009 3010 3010 3011 3011 3011 3012 3012 3012 3013 3013 3014 3014 3015 3015 3016 3016 3017 3018 3019 3020 3021 3021 3022 3023 3024 3025 3025 3026 3027 3028 3028 3028 3028 3028 3029 3028 3028 3029 3029 3029 3030 3030 3031 3031 3031 3032 3031 3032 3034 3029 3021 3020 3023 3023 3024 3024 3024 3025 3024 3024 3023 3023 3023 3023 3023 3023 3022
3011 3011 3010 3010 3009 3008 3008 3007 3007 3007 3006 3006 3006 3006 3006 3006 3006 3006 3006 3007 3007 3008 3009 3009 3009 3010 3010 3010 3011 3011 3012 3012 3012 3013 3013 3014 3015 3016 3017 3018 3019 3019 3020 3021 3021 3022 3023 3024 3024 3026 3027 3027 3027 3027 3026 3026 3026 3026 3026 3027 3027 3028 3028 3029 3029 3030 3031 3029 3030 3031 3025 3019 3020 3022 3022 3023 3023 3022 3022 3022 3022 3021 3021 3021 3020 3020 3019 3019
3010 3010 3009 3008 3008 3007 3006 3006 3006 3005 3005 3005 3005 3004 3004 3004 3005 3005 3005 3005 3006 3007 3007 3007 3008 3008 3008 3009 3009 3010 3010 3010 3011 3011 3012 3012 3013 3014 3015 3016 3017 3018 3019 3019 3020 3021 3021 3022 3022 3023 3024 3023 3023 3023 3023 3023 3024 3025 3025 3026 3026 3026 3027 3027 3028 3029 3028 3027 3027 3026 3022 3019 3020 3021 3021 3021 3021 3020 3020 3020 3019 3019 3019 3018 3017 3017 3016 3015
3008 3008 3008 3007 3006 3006 3005 3005 3004 3004 3004 3004 3003 3003 3003 3003 3003 3003 3004 3004 3005 3005 3005 3006 3006 3007 3007 3007 3008 3008 3009 3009 3010 3010 3011 3011 3012 3013 3014 3015 3016 3017 3018 3018 3019 3019 3020 3020 3021 3021 3021 3021 3021 3021 3021 3022 3022 3023 3023 3024 3024 3025 3025 3026 3026 3026 3025 3025 3023 3022 3020 3019 3019 3020 3020 3019 3019 3018 3018 3016 3016 3015 3015 3015 3014 3013 3012 3011
3006 3006 3006 3006 3005 3004 3004 3003 3003 3003 3003 3003 3002 3002 3002 3002 3002 3002 3002 3003 3003 3004 3004 3004 3005 3005 3006 3006 3007 3007 3007 3008 3009 3009 3010 3010 3011 3012 3013 3014 3015 3016 3016 3017 3018 3018 3019 3019 3019 3020 3020 3020 3020 3020 3021 3021 3021 3021 3022 3022 3022 3023 3023 3023 3023 3023 3023 3023 3021 3019 3019 3018 3018 3019 3018 3017 3017 3016 3014 3013 3012 3012 3011 3011 3010 3009 3009 3008
3005 3005 3005 3004 3004 3003 3003 3002 3002 3002 3001 3001 3001 3001 3001 3001 3000 3001 3001 3001 3002 3002 3003 3003 3004 3004 3005 3005 3005 3006 3006 3007 3007 3008 3009 3009 3010 3011 3012 3013 3014 3015 3015 3016 3017 3017 3018 3018 3018 3019 3019 3019 3020 3019 3019 3019 3020 3020 3020 3020 3020 3020 3020 3020 3021 3020 3020 3020 3018 3017 3017 3016 3016 3017 3016 3015 3014 3012 3011 3011 3010 3009 3008 3007 3006 3006 3005 3004
3003 3003 3003 3003 3002 3002 3001 3001 3001 3000 3000 3000 3000 3000 3000 2999 2999 2999 3000 3000 3001 3001 3001 3002 3002 3003 3004 3004 3004 3005 3005 3006 3006 3007 3008 3009 3010 3010 3011 3012 3013 3014 3014 3015 3015 3016 3016 3017 3017 3018 3018 3018 3018 3018 3018 3018 3018 3018 3018 3018 3018 3018 3018 3018 3018 3018 3017 3016 3016 3016 3015 3014 3015 3014 3012 3012 3011 3010 3009 3008 3007 3006 3005 3004 3003 3002 3001 3001
3002 3002 3002 3001 3001 3001 3000 3000 2999 2999 2999 2999 2998 2998 2998 2998 2998 2998 2999 2999 2999 3000 3000 3001 3001 3002 3003 3003 3004 3004 3005 3005 3006 3006 3007 3008 3009 3010 3010 3011 3012 3013 3013 3014 3014 3015 3015 3016 3016 3016 3017 3017 3017 3017 3017 3016 3016 3016 3016 3015 3015 3015 3015 3015 3015 3015 3014 3014 3014 3014 3013 3012 3012 3010 3009 3009 3009 3007 3006 3005 3004 3003 3002 3001 3000 2999 2998 2997
3000 3000 3000 3000 2999 2999 2999 2998 2998 2998 2997 2997 2997 2997 2997 2997 2997 2997 2998 2998 2998 2999 2999 3000 3000 3001 3002 3002 3003 3003 3004 3005 3005 3006 3007 3007 3008 3009 3010 3010 3011 3012 3012 3013 3014 3014 3015 3015 3015 3016 3016 3016 3016 3016 3016 3015 3015 3013 3012 3012 3012 3012 3012 3012 3012 3012 3012 3012 3012 3011 3010 3010 3009 3008 3007 3007 3006 3004 3004 3002 3001 3000 2999 2998 2997 2995 2995 2994
2999 2999 2998 2998 2998 2998 2997 2997 2997 2996 2996 2996 2996 2996 2996 2996 2996 2996 2996 2997 2997 2998 2998 2999 2999 3000 3001 3001 3002 3003 3003 3004 3005 3005 3006 3007 3007 3008 3009 3010 3010 3011 3012 3012 3013 3013 3014 3014 3014 3015 3015 3014 3015 3015 3014 3015 3013 3010 3008 3009 3009 3010 3010 3010 3010 3010 3010 3010 3009 3008 3008 3007 3006 3005 3005 3004 3003 3002 3000 2999 2998 2996 2995 2994 2993 2992 2991 2990